Wind_Speed
12 10 8 8 7 7 8 9 8 7 6 6 4 3 3 3 7 4 9 13 14 11 11 10 5 4 2 2 3 3 4 2 2 5 4 13 10 11 17 8 11 6 2 3 15
12 10 7 6 6 7 8 9 8 7 6 4 3 4 7 7 7 12 11 11 14 14 10 12 8 4 3 3 3 4 4 5 2 2 5 12 10 16 11 17 3 8 15 9 13
10 9 8 7 7 8 9 7 7 7 5 3 2 4 11 7 2 12 11 12 13 13 12 7 7 7 4 4 6 3 3 4 5 9 17 8 9 16 10 6 1 12 23 13 19
10 10 9 8 8 9 8 7 5 4 4 2 3 4 7 7 2 13 14 13 12 11 9 5 3 4 5 4 6 3 5 7 10 21 12 6 15 5 16 20 22 26 29 19 22
10 9 8 8 9 10 8 6 4 3 2 2 8 11 10 9 8 13 15 13 9 7 8 8 14 4 4 3 7 3 7 17 22 21 23 18 13 11 20 26 16 22 16 15 22
11 9 7 8 10 10 7 5 3 2 4 6 8 8 6 9 13 13 14 14 11 9 10 9 8 6 6 4 4 9 8 11 14 17 15 16 10 3 5 18 25 21 16 16 19
11 8 7 9 11 11 5 3 4 5 10 17 23 22 21 11 12 12 13 15 12 7 9 8 8 6 5 3 10 7 8 6 15 26 8 33 4 4 22 30 28 26 26 21 23
11 8 8 9 12 9 5 4 7 8 14 14 10 12 9 13 12 14 19 12 10 10 7 9 8 11 7 6 6 6 6 7 7 25 13 15 5 9 33 32 32 36 38 32 23
10 8 8 8 11 5 5 6 8 10 10 9 7 9 5 13 14 15 18 21 10 14 11 11 13 10 11 4 4 9 3 4 11 17 9 8 15 10 35 33 27 30 37 36 31
9 7 7 8 9 4 8 11 11 11 11 12 11 11 6 6 13 14 19 18 14 5 8 10 9 6 6 8 3 4 4 4 6 8 5 12 19 15 27 25 27 27 35 41 38
9 7 7 7 6 4 10 7 5 8 20 11 9 9 9 5 7 11 15 21 19 16 5 10 9 6 5 4 3 3 3 5 6 9 11 6 20 17 23 25 23 28 25 33 36
8 7 6 5 8 7 7 1 9 9 9 12 12 9 10 8 6 11 14 7 16 7 4 6 10 3 3 4 2 0 2 5 8 6 11 12 23 14 11 15 23 24 27 28 29
7 6 5 2 6 8 5 10 15 8 5 5 6 7 6 7 6 9 11 4 7 7 6 6 2 5 5 5 6 3 2 3 6 6 6 8 10 8 23 19 24 26 25 24 24
6 6 4 3 2 2 5 14 10 4 5 4 2 3 4 1 6 14 7 4 6 4 3 4 4 4 4 4 2 3 5 5 6 6 3 4 8 11 8 20 14 25 28 25 23
6 4 2 3 2 2 5 10 6 1 4 1 2 3 12 9 2 12 10 8 4 3 6 2 5 5 4 3 2 6 6 6 4 2 3 4 2 7 13 17 17 23 30 34 31
6 4 2 2 2 3 7 10 3 6 3 1 2 3 5 11 6 5 10 8 7 4 5 2 3 3 3 5 3 7 4 5 4 3 2 3 0 5 8 12 20 29 32 34 38
7 4 2 3 2 4 8 7 5 5 2 1 2 3 4 6 6 6 6 8 5 5 7 7 4 5 9 7 7 9 5 4 5 4 3 5 5 7 12 13 17 22 28 34 34
7 4 3 3 5 6 10 5 4 4 3 2 3 4 5 5 4 4 3 4 7 6 4 5 3 5 7 1 3 4 1 4 2 2 4 6 4 2 16 22 29 32 37 32 39
6 6 4 4 7 8 5 4 7 6 6 7 4 5 2 3 4 4 3 2 3 4 4 2 3 5 3 3 1 4 3 2 3 0 3 2 3 4 15 16 22 30 36 35 35
7 7 7 6 6 8 4 4 2 3 5 3 4 2 4 2 3 3 2 1 2 4 1 2 2 1 6 6 5 3 3 2 3 2 3 2 3 3 9 11 9 10 20 31 34
8 5 8 9 9 4 4 5 4 4 6 3 4 4 4 4 3 3 4 2 2 2 5 1 2 4 2 3 2 5 4 3 1 2 1 3 2 5 7 11 8 12 17 23 29
7 1 9 13 3 1 3 5 5 5 4 3 4 4 4 4 3 4 4 3 5 2 2 1 2 3 4 6 4 2 2 4 3 2 2 2 4 3 5 15 18 16 17 22 27
5 4 8 16 3 1 2 2 3 4 4 3 3 4 2 5 4 3 5 9 6 4 5 3 1 2 2 3 3 3 3 4 2 2 6 2 4 7 13 16 17 17 17 18 23
5 1 4 10 4 6 6 5 5 4 4 6 5 6 4 3 1 5 4 5 2 4 3 5 3 5 5 2 2 3 3 2 4 2 3 7 11 10 9 9 16 19 16 18 19
9 4 5 3 4 4 3 6 7 6 5 8 3 5 6 4 3 4 3 2 2 4 3 3 4 2 6 6 3 6 9 7 8 9 5 6 8 6 6 6 10 12 14 18 21
7 6 6 3 12 8 3 6 7 5 7 5 6 7 5 6 6 7 6 4 4 1 2 1 2 1 4 4 6 8 9 7 9 9 11 14 16 1 10 10 8 10 15 20 26
18 8 3 6 5 5 5 7 9 11 3 9 12 6 5 6 8 6 11 7 7 8 4 3 3 2 3 3 4 5 6 6 3 2 4 4 3 5 4 9 7 8 13 16 21
Wind_Direction
339 328 316 318 310 315 320 314 314 312 309 309 322 64 99 100 91 82 29 18 359 358 359 357 330 297 258 82 95 113 65 258 233 138 280 2 360 343 338 333 331 209 296 271 204
334 330 327 331 337 334 324 319 321 312 315 317 298 142 156 137 95 62 38 14 4 356 352 12 26 55 101 71 57 81 119 218 166 28 6 340 353 323 337 325 341 323 342 290 220
337 335 340 347 349 341 332 324 321 309 315 344 334 170 178 170 49 10 6 359 355 351 359 360 16 55 63 57 20 29 164 4 350 30 1 344 335 326 319 313 303 319 328 288 211
341 346 350 354 351 343 334 325 328 312 325 32 120 144 161 176 96 7 6 358 353 349 347 22 45 60 68 28 9 29 33 28 332 330 338 322 316 283 273 263 303 303 303 271 230
346 351 355 355 350 343 339 334 349 326 15 87 132 122 129 93 44 31 23 5 3 4 34 50 53 66 87 11 352 58 355 335 331 322 318 296 242 251 265 282 309 323 299 277 244
351 352 357 354 348 344 345 354 17 41 79 110 131 130 118 77 59 40 26 25 27 36 48 58 61 55 80 66 64 321 311 321 347 348 349 338 294 134 15 335 309 306 296 278 241
352 355 355 351 351 351 3 21 68 84 104 115 110 101 85 77 60 38 31 29 21 25 62 70 65 54 29 32 351 328 351 360 29 357 23 351 3 103 21 1 358 340 334 283 262
352 349 349 350 359 8 50 71 86 93 124 123 106 100 84 75 56 47 47 48 48 56 84 75 80 83 44 337 25 37 43 6 342 9 344 12 243 338 335 346 338 331 327 331 307
350 344 342 343 7 44 113 76 101 99 119 127 107 92 80 72 55 56 44 42 82 79 70 92 76 62 22 59 43 18 33 354 327 343 333 50 297 309 326 331 329 330 327 325 326
347 339 333 337 16 100 111 110 95 101 101 100 88 97 85 31 53 51 48 36 35 114 70 63 69 69 15 35 74 338 354 322 302 303 323 295 284 314 320 315 315 319 320 318 317
340 331 328 346 29 121 150 116 94 82 71 78 80 85 75 67 55 39 32 38 47 54 64 35 65 54 40 74 131 170 206 280 250 285 325 296 298 317 310 305 301 302 304 312 313
332 321 317 356 27 43 184 183 121 120 77 66 74 72 53 33 50 40 29 52 35 49 21 40 59 16 7 55 55 320 323 310 298 294 305 302 302 306 301 290 298 301 311 312 313
322 316 303 301 28 43 141 142 133 118 95 47 46 49 37 48 31 11 18 46 59 43 36 85 61 9 46 17 28 318 229 258 269 320 270 324 307 14 338 339 328 319 312 319 321
311 315 306 232 353 58 98 140 131 107 83 317 17 39 349 76 66 43 29 34 44 59 85 85 19 32 41 54 98 293 223 256 282 12 346 42 296 332 318 319 310 312 348 8 9
298 307 355 151 109 82 124 152 143 61 61 195 72 44 61 90 280 10 29 70 85 18 67 300 10 10 27 304 275 242 316 268 247 211 33 288 352 321 354 9 10 3 4 359 8
287 284 216 138 125 119 130 147 146 44 245 69 53 12 60 43 38 34 46 63 58 75 32 31 312 52 343 312 318 290 317 3 42 79 30 308 112 340 11 344 5 359 7 11 14
267 224 177 179 187 152 144 143 48 122 314 63 79 58 93 19 35 38 49 35 42 31 10 346 1 1 31 350 345 17 35 10 15 14 250 340 23 34 335 356 2 355 3 15 15
251 202 188 204 164 153 153 58 94 218 195 101 90 72 76 27 30 28 47 34 20 56 63 31 355 15 348 145 265 312 84 127 187 298 294 328 46 251 354 12 359 349 3 1 13
223 196 209 181 161 162 143 74 204 206 159 134 64 84 61 35 92 67 56 88 16 28 102 48 284 328 335 307 169 321 64 193 140 304 278 258 3 20 354 343 12 1 356 356 12
202 207 223 190 166 153 87 212 180 229 120 108 122 136 136 154 102 90 120 328 145 17 137 184 285 286 300 3 8 65 308 68 18 17 297 305 75 269 355 358 3 13 351 357 4
198 218 199 186 164 176 164 207 191 178 135 121 133 118 128 147 149 146 142 355 54 351 53 65 117 294 352 51 350 354 13 19 162 96 227 314 173 23 329 345 2 12 11 14 5
187 251 184 175 139 52 157 184 147 141 121 98 97 100 133 151 147 157 145 145 178 156 131 125 149 276 258 276 199 54 80 56 66 328 265 262 242 59 16 9 15 19 23 16 19
211 197 182 182 152 252 237 183 178 138 144 125 113 119 135 147 130 155 131 143 118 145 156 173 191 349 21 14 74 107 119 114 230 200 235 224 250 28 29 8 7 7 23 24 20
200 147 184 200 200 150 150 168 145 129 120 120 115 108 109 121 97 159 140 194 324 185 177 175 187 197 201 168 136 260 189 140 161 178 264 247 296 331 351 351 350 6 17 14 16
215 231 181 204 237 173 136 146 144 152 147 142 92 155 149 129 126 176 144 94 52 114 92 122 200 225 264 262 225 254 264 254 212 224 213 283 277 300 312 319 340 3 9 5 3
201 182 174 151 152 122 173 214 152 157 139 184 145 166 154 151 173 180 145 196 179 131 106 328 226 52 289 287 223 256 255 238 245 244 239 260 280 267 324 345 354 8 1 356 353
209 215 194 156 152 117 203 170 185 135 193 172 152 124 153 211 194 191 194 181 169 154 158 150 147 127 265 332 316 309 228 194 221 157 205 244 246 320 319 333 311 334 344 342 342
Height
1517 1515 1514 1513 1512 1512 1511 1509 1508 1507 1507 1506 1507 1507 1506 1506 1505 1504 1504 1508 1507 1505 1503 1502 1500 1501 1501 1503 1503 1504 1516 1522 1514 1520 1511 1507 1505 1500 1498 1498 1497 1495 1495 1495 1498
1517 1515 1514 1513 1513 1511 1509 1506 1505 1505 1505 1505 1506 1506 1506 1507 1506 1506 1510 1509 1507 1504 1503 1502 1500 1500 1501 1503 1505 1506 1519 1514 1511 1512 1514 1510 1510 1504 1500 1497 1495 1496 1495 1493 1493
1516 1514 1513 1512 1510 1509 1507 1507 1505 1504 1504 1505 1504 1505 1506 1508 1508 1510 1509 1507 1505 1505 1503 1502 1502 1500 1502 1504 1508 1509 1515 1512 1510 1513 1514 1512 1508 1507 1503 1495 1495 1495 1494 1493 1492
1516 1514 1512 1511 1510 1507 1506 1505 1504 1504 1504 1505 1505 1504 1505 1509 1514 1512 1509 1506 1506 1505 1502 1502 1503 1501 1506 1510 1509 1512 1512 1515 1513 1510 1511 1511 1508 1505 1501 1494 1493 1493 1492 1491 1490
1516 1514 1513 1511 1510 1508 1507 1506 1504 1504 1504 1505 1505 1504 1508 1509 1514 1512 1510 1507 1505 1505 1502 1502 1503 1505 1509 1511 1510 1512 1514 1514 1513 1509 1506 1504 1502 1503 1497 1495 1493 1491 1488 1488 1487
1516 1514 1513 1512 1511 1508 1507 1506 1506 1505 1506 1504 1505 1507 1509 1511 1514 1512 1510 1508 1504 1506 1503 1503 1506 1507 1508 1511 1514 1515 1513 1514 1512 1509 1505 1505 1499 1499 1499 1497 1494 1490 1489 1488 1487
1516 1514 1513 1512 1510 1508 1507 1507 1507 1507 1506 1506 1508 1508 1507 1514 1515 1513 1512 1508 1503 1505 1505 1505 1507 1509 1509 1511 1514 1514 1513 1510 1512 1514 1508 1501 1495 1497 1501 1498 1495 1491 1494 1493 1489
1516 1514 1513 1511 1509 1507 1507 1507 1507 1507 1507 1509 1509 1508 1514 1516 1516 1514 1511 1509 1506 1506 1507 1505 1509 1512 1511 1514 1515 1521 1523 1532 1517 1517 1512 1514 1506 1497 1496 1500 1497 1493 1489 1490 1491
1516 1514 1513 1511 1510 1508 1508 1508 1507 1509 1509 1510 1511 1510 1518 1518 1517 1516 1513 1510 1509 1508 1508 1507 1511 1514 1515 1520 1531 1537 1543 1540 1534 1523 1522 1522 1512 1503 1503 1500 1499 1495 1491 1487 1485
1516 1514 1513 1512 1511 1509 1509 1509 1509 1511 1511 1511 1513 1515 1520 1521 1518 1517 1515 1514 1511 1509 1510 1511 1516 1523 1528 1528 1552 1545 1546 1545 1542 1528 1523 1520 1509 1506 1506 1504 1499 1496 1492 1487 1482
1516 1514 1513 1512 1510 1510 1510 1510 1513 1514 1513 1515 1518 1518 1520 1522 1520 1519 1516 1514 1512 1512 1516 1517 1525 1536 1535 1534 1537 1539 1541 1544 1538 1528 1522 1518 1507 1507 1502 1498 1496 1491 1491 1487 1482
1515 1514 1513 1512 1510 1509 1510 1510 1512 1517 1518 1518 1519 1520 1520 1520 1521 1520 1518 1517 1517 1521 1519 1525 1533 1533 1533 1533 1536 1536 1539 1542 1533 1526 1526 1518 1504 1504 1501 1498 1493 1490 1487 1485 1481
1515 1514 1513 1513 1512 1512 1511 1512 1513 1515 1517 1521 1521 1521 1522 1523 1522 1522 1521 1521 1521 1524 1526 1530 1534 1532 1532 1534 1537 1537 1538 1539 1537 1528 1524 1523 1509 1505 1501 1496 1490 1487 1484 1481 1478
1514 1514 1513 1512 1514 1512 1512 1514 1515 1516 1527 1526 1523 1524 1523 1522 1525 1523 1522 1524 1525 1529 1529 1532 1533 1533 1534 1536 1538 1540 1532 1532 1533 1535 1543 1528 1526 1511 1502 1495 1490 1484 1486 1482 1476
1514 1513 1512 1512 1512 1513 1514 1515 1516 1517 1553 1526 1523 1524 1523 1524 1527 1527 1525 1525 1529 1529 1531 1538 1535 1535 1535 1536 1533 1534 1529 1530 1528 1535 1539 1529 1539 1522 1510 1508 1502 1496 1490 1485 1478
1512 1512 1512 1512 1512 1513 1514 1516 1519 1539 1555 1525 1524 1525 1526 1526 1528 1528 1526 1525 1527 1529 1531 1534 1532 1534 1536 1532 1531 1529 1526 1526 1529 1535 1540 1528 1533 1536 1530 1525 1509 1501 1495 1489 1483
1511 1511 1511 1512 1513 1513 1514 1517 1537 1555 1525 1527 1526 1525 1528 1531 1531 1532 1534 1535 1541 1539 1547 1540 1537 1537 1537 1537 1532 1533 1535 1548 1544 1542 1542 1527 1535 1544 1529 1522 1516 1510 1502 1495 1490
1510 1510 1510 1511 1512 1513 1514 1520 1549 1531 1523 1523 1525 1526 1531 1533 1536 1536 1539 1545 1542 1545 1554 1556 1547 1544 1543 1544 1544 1542 1539 1559 1572 1551 1546 1530 1539 1540 1532 1525 1525 1514 1504 1501 1491
1508 1509 1510 1510 1511 1512 1515 1544 1535 1522 1518 1523 1526 1531 1536 1536 1539 1541 1547 1548 1547 1547 1554 1558 1553 1544 1542 1542 1543 1540 1545 1539 1549 1548 1548 1538 1536 1530 1532 1526 1518 1510 1501 1500 1496
1507 1508 1508 1509 1510 1512 1517 1525 1518 1516 1517 1520 1527 1531 1539 1540 1541 1544 1547 1549 1549 1549 1548 1552 1559 1546 1544 1541 1541 1542 1541 1547 1549 1547 1545 1536 1542 1544 1530 1526 1519 1516 1513 1503 1497
1507 1506 1506 1508 1510 1512 1525 1521 1515 1514 1515 1519 1525 1531 1536 1540 1541 1544 1547 1550 1549 1549 1549 1552 1555 1551 1546 1548 1549 1550 1550 1548 1547 1552 1557 1547 1541 1532 1531 1524 1522 1518 1514 1509 1502
1505 1506 1502 1505 1510 1513 1519 1510 1510 1513 1515 1518 1522 1526 1534 1538 1540 1543 1545 1547 1548 1549 1552 1553 1558 1559 1552 1545 1546 1547 1552 1555 1556 1556 1557 1553 1542 1531 1529 1526 1523 1520 1518 1513 1506
1501 1501 1501 1503 1514 1517 1510 1509 1509 1511 1514 1518 1522 1525 1530 1536 1542 1541 1544 1547 1547 1549 1551 1552 1560 1569 1551 1547 1546 1550 1551 1556 1559 1559 1552 1551 1537 1526 1527 1526 1525 1522 1520 1516 1510
1498 1500 1499 1500 1498 1500 1504 1507 1509 1510 1512 1515 1520 1523 1530 1535 1536 1541 1544 1546 1546 1547 1548 1550 1555 1554 1560 1548 1553 1553 1551 1554 1558 1575 1561 1543 1534 1529 1529 1528 1526 1522 1519 1516 1512
1493 1487 1488 1498 1496 1494 1496 1500 1505 1509 1510 1513 1520 1522 1526 1536 1539 1540 1542 1545 1546 1546 1547 1550 1557 1553 1550 1549 1550 1549 1550 1551 1554 1551 1558 1539 1539 1533 1531 1528 1526 1523 1520 1515 1511
1485 1484 1485 1486 1487 1491 1495 1500 1498 1503 1506 1512 1515 1521 1524 1529 1531 1538 1540 1543 1544 1548 1549 1550 1558 1554 1555 1546 1547 1546 1543 1545 1544 1543 1543 1539 1535 1531 1529 1526 1525 1523 1520 1515 1510
1479 1480 1480 1484 1486 1490 1492 1493 1495 1496 1504 1506 1510 1519 1525 1525 1527 1530 1533 1536 1539 1544 1549 1551 1552 1558 1553 1545 1544 1553 1536 1535 1532 1533 1533 1534 1531 1528 1526 1525 1523 1521 1518 1515 1511